Theta_e
290 290 290 291 292 294 294 296 297 300 301 302 303 303 303 304 305 306 306 309 307 305 304 304 304 304 303 302 300 297 299 309 308 315 319 322 322 321
291 290 289 289 290 291 293 293 294 295 297 299 301 302 303 304 305 306 306 309 306 304 304 303 303 303 303 301 300 298 298 307 307 312 316 318 321 322
289 290 290 290 290 290 291 292 293 294 295 294 296 299 300 303 305 305 307 305 305 303 303 303 303 303 302 301 300 298 299 304 307 309 313 316 321 322
289 289 289 288 288 288 289 290 291 292 293 294 295 298 300 300 302 305 305 305 304 303 303 303 303 302 302 301 300 298 299 302 307 308 309 315 318 322
289 289 289 289 289 287 288 289 290 291 293 293 294 296 299 300 303 303 305 305 303 303 303 303 303 302 302 302 300 298 298 300 307 306 308 312 317 321
287 287 286 287 288 288 287 287 289 290 292 292 293 294 296 299 300 303 302 303 303 303 303 303 303 303 303 302 301 299 298 300 303 307 307 307 315 321
286 286 286 286 287 288 287 287 288 290 292 292 292 293 296 299 300 303 303 303 303 303 303 303 303 303 304 303 302 300 298 300 300 304 306 306 311 318
287 287 287 287 287 288 288 288 288 289 291 292 292 293 296 299 301 303 302 302 301 303 303 304 303 303 304 304 302 299 298 300 299 303 305 304 306 315
287 287 287 287 287 287 287 287 288 289 290 290 290 291 296 299 300 302 303 303 303 304 304 303 302 302 303 303 301 300 300 299 301 304 303 303 303 307
288 287 287 287 288 288 288 288 289 290 290 290 290 292 299 300 299 303 303 303 303 303 303 302 302 302 302 303 303 302 301 301 301 302 301 301 300 302
288 287 287 287 287 288 289 289 289 290 290 291 292 293 300 302 303 304 303 303 302 305 304 304 304 303 302 302 303 304 304 305 305 304 303 301 300 301
288 288 288 287 288 290 289 289 290 291 292 294 298 299 302 302 303 303 303 303 303 302 304 305 305 304 304 303 302 304 305 304 305 305 304 302 300 300
288 288 287 288 288 289 289 289 290 291 293 298 299 300 301 303 303 303 303 303 303 302 304 305 305 305 305 303 304 304 305 304 304 304 304 303 302 301
288 288 288 288 289 289 289 289 290 292 297 297 298 299 300 302 303 303 303 303 304 304 305 305 305 305 304 301 303 303 304 304 303 303 303 302 304 304
289 289 288 288 288 288 289 290 292 294 297 297 299 299 300 301 303 303 303 303 303 304 304 305 304 303 303 304 304 303 304 303 302 303 302 299 301 304
290 289 289 289 288 288 289 291 293 295 297 297 298 299 301 301 301 301 302 302 302 302 301 301 300 301 303 303 303 303 303 302 304 303 303 302 301 299
291 290 290 289 288 289 290 292 294 295 296 296 298 298 300 299 299 299 300 300 299 299 299 299 300 300 299 298 298 300 300 301 301 302 302 303 302 299
292 291 291 291 291 292 292 294 296 296 296 297 298 298 298 298 298 297 297 297 297 296 296 296 297 299 299 300 299 299 298 299 300 301 301 301 303 301
291 291 292 292 293 294 295 296 296 296 297 298 298 298 298 298 297 296 298 297 296 295 295 295 296 297 294 296 299 299 299 300 300 299 301 300 300 301
288 289 290 292 293 294 294 294 295 296 296 297 297 297 297 297 297 297 296 298 296 294 296 296 296 297 297 297 299 301 301 301 299 299 300 299 299 298
285 286 287 289 290 292 293 295 296 295 296 297 298 298 299 298 298 298 297 297 295 295 294 294 297 297 298 296 296 297 299 300 300 299 297 297 296 297
285 285 285 286 287 288 290 291 292 295 296 295 296 297 298 298 297 297 297 296 295 294 295 297 297 296 296 295 295 297 297 298 299 298 294 295 298 295
285 285 285 285 285 286 286 287 289 290 291 292 294 295 296 297 297 297 296 296 295 295 295 295 296 296 296 296 295 295 295 296 295 296 295 294 295 297
Wind_Speed
16 17 16 20 20 18 20 20 13 4 5 10 20 27 29 28 28 30 30 35 33 31 28 25 24 25 23 21 19 19 18 18 19 22 19 13 29 28
19 18 18 18 17 18 20 21 17 13 4 4 16 17 17 23 27 33 32 32 32 28 25 23 23 23 22 21 20 19 18 19 17 19 20 18 23 33
19 20 20 19 20 20 21 18 17 18 9 18 22 23 24 23 24 26 31 34 29 25 22 25 24 23 23 21 20 20 18 19 19 18 17 21 20 39
21 21 20 17 15 15 17 21 19 18 16 17 19 21 25 26 27 26 27 36 30 25 24 24 24 24 23 22 20 20 19 19 19 17 17 18 21 32
21 21 22 20 23 17 16 20 19 22 19 19 18 21 21 22 23 26 28 35 30 25 24 23 22 24 23 22 20 20 20 19 20 20 21 21 19 30
19 21 22 23 22 22 19 18 18 20 20 19 19 18 21 24 22 23 21 32 28 26 24 21 20 19 22 22 21 20 20 19 21 20 17 16 16 26
22 22 22 23 22 24 20 19 19 19 18 16 17 18 19 19 21 24 21 28 25 25 24 22 21 21 22 21 21 21 20 20 20 20 18 16 17 19
23 26 25 23 21 22 26 25 25 23 18 18 17 17 21 23 21 26 24 16 4 22 21 20 19 19 19 20 19 19 19 20 19 19 17 16 16 18
23 23 17 14 15 18 19 24 27 26 27 25 20 22 25 31 24 25 26 24 12 16 21 19 16 15 14 14 16 17 16 17 17 18 17 17 17 17
21 15 13 11 11 14 16 21 21 21 24 25 28 28 24 30 31 28 30 24 15 14 19 9 13 16 17 13 11 13 14 15 17 18 18 19 19 18
16 10 10 10 11 14 10 10 12 17 20 27 25 20 15 29 22 26 22 21 4 8 16 10 11 12 12 13 14 12 12 10 13 16 18 19 18 20
15 7 6 7 6 3 5 6 12 15 15 9 20 17 18 20 24 25 23 20 9 3 10 12 10 8 3 12 15 14 14 14 14 14 16 15 16 20
8 2 2 3 6 4 6 5 11 14 14 13 15 17 16 18 16 15 14 17 13 4 9 15 9 8 3 2 11 18 19 16 15 15 15 17 17 18
4 2 2 2 3 2 3 6 11 10 9 13 16 17 15 13 14 15 13 12 10 7 7 12 6 5 1 5 3 6 11 13 15 16 17 21 23 21
2 4 3 2 1 1 1 3 6 11 9 13 17 13 9 13 12 14 15 14 13 11 7 6 7 7 4 5 3 5 3 3 10 12 9 14 19 22
6 3 2 0 2 1 2 0 3 7 8 10 11 6 7 9 10 9 8 7 5 5 5 5 5 6 7 10 11 12 10 5 6 9 10 10 13 21
8 8 7 6 4 3 2 2 4 5 7 6 4 5 6 6 6 5 5 4 3 3 4 3 3 4 6 9 9 15 16 19 21 21 16 16 15 17
17 14 10 5 7 6 4 2 4 2 4 2 1 1 3 1 1 2 2 2 1 2 4 4 4 4 7 10 11 16 18 21 21 20 18 16 20 18
22 20 19 17 10 5 1 1 1 0 1 3 3 1 1 3 4 3 3 2 3 5 7 7 6 8 2 4 10 12 14 16 17 17 18 20 22 18
21 19 19 18 18 14 11 7 4 3 2 4 5 5 6 7 7 8 8 8 8 6 8 9 9 11 10 5 4 8 11 14 16 19 18 18 20 18
23 20 18 16 14 13 14 14 12 10 9 8 6 5 5 8 7 5 5 6 9 11 13 13 11 10 12 11 7 10 16 17 17 17 12 13 13 11
23 23 22 19 16 14 13 12 12 11 11 10 8 8 9 9 10 11 9 8 10 13 16 17 14 14 12 11 12 14 15 16 16 14 15 15 6 3
26 25 24 24 23 21 18 16 15 15 14 13 11 10 10 11 14 16 13 10 11 14 17 19 18 14 16 16 15 16 14 15 13 12 14 17 19 20
Wind_Direction
273 273 272 267 267 273 274 248 247 255 262 242 235 246 251 254 253 249 249 238 233 231 234 237 242 240 245 255 259 256 250 246 260 251 253 248 219 213
273 279 270 268 267 270 268 256 246 236 253 280 244 250 258 262 258 255 254 234 222 226 231 236 238 236 242 252 254 252 250 243 254 250 251 258 245 230
282 277 271 269 267 266 265 268 254 236 249 264 264 271 261 262 260 260 240 217 217 221 228 235 235 235 242 252 254 249 250 242 246 250 249 254 244 213
283 279 270 263 262 265 263 258 257 257 254 264 263 265 267 260 259 252 238 220 217 219 228 232 232 237 244 250 251 247 247 242 243 248 252 243 243 229
286 279 277 267 257 258 257 257 260 255 253 260 265 256 268 264 249 247 247 220 214 221 225 227 232 239 244 247 250 245 243 241 241 247 246 253 258 229
287 282 278 272 262 257 258 260 255 260 251 257 263 262 264 259 259 224 218 213 205 213 220 221 233 237 243 246 247 245 243 243 239 243 249 260 260 222
294 291 282 273 260 254 250 253 252 248 252 248 261 248 253 248 249 218 212 197 199 207 211 222 233 241 240 240 241 243 242 241 242 240 250 257 251 247
289 288 285 274 257 253 247 247 253 256 235 242 251 240 252 241 228 202 192 159 169 202 209 227 237 237 236 235 242 243 241 244 242 239 249 259 258 245
296 294 290 275 255 251 250 249 250 250 256 249 253 261 252 223 212 191 170 164 166 186 206 220 227 231 231 241 244 240 244 242 237 237 247 255 256 259
310 291 280 272 265 254 247 255 243 245 250 253 254 272 238 204 213 177 166 171 180 194 205 194 215 214 226 229 233 234 237 239 240 244 250 253 253 252
313 283 271 274 279 271 229 223 254 266 270 254 258 256 164 185 186 162 157 158 137 181 201 214 201 214 224 231 226 229 229 238 237 242 248 250 252 249
297 283 271 254 293 183 246 269 287 291 285 301 145 122 111 134 154 166 163 159 139 152 190 195 186 195 218 231 231 225 221 240 248 252 246 249 251 251
338 191 280 241 273 256 271 291 302 321 337 84 81 90 87 101 126 143 159 172 159 137 182 184 185 188 243 231 221 217 231 242 248 250 251 251 249 246
42 120 143 188 265 274 286 310 311 343 45 82 87 80 76 112 110 124 134 148 155 165 161 178 145 125 266 211 219 215 223 239 246 253 260 257 247 242
76 83 111 157 294 266 278 310 348 3 50 69 81 72 73 108 117 120 123 124 130 131 120 131 179 178 214 241 216 219 248 251 244 245 272 268 242 232
51 88 127 11 2 286 131 75 10 25 54 61 71 71 100 117 124 132 140 144 163 164 168 174 182 192 212 237 261 265 262 282 263 249 266 274 274 243
55 62 87 108 99 96 81 39 12 63 51 83 74 59 119 114 126 128 149 169 187 205 215 223 234 246 269 267 268 259 265 264 263 272 263 259 262 270
45 41 47 57 98 108 105 71 27 87 129 111 41 107 135 206 157 139 135 135 145 274 272 290 300 299 287 254 257 270 265 269 276 273 253 249 264 270
35 26 31 46 61 63 22 340 43 64 152 223 199 234 227 223 223 218 182 237 250 265 271 276 275 245 158 262 281 246 271 275 274 270 254 242 253 279
26 21 20 25 31 33 28 14 347 296 237 256 258 257 252 243 238 238 227 227 241 268 285 281 277 258 229 240 269 282 264 266 265 269 269 255 257 263
11 11 14 13 13 12 12 14 4 355 342 335 308 296 276 222 227 240 241 247 261 271 277 279 295 291 275 268 256 262 273 272 268 264 267 251 247 253
14 14 13 8 2 355 348 344 342 346 338 325 312 289 272 264 268 272 255 271 279 272 284 293 287 280 267 246 253 264 278 277 269 274 244 237 225 219
8 11 13 16 12 6 356 344 331 322 317 317 320 301 300 293 278 262 257 251 275 286 293 301 297 272 263 265 262 269 268 266 267 263 256 245 243 246